| time (UTC) | temp C | wind direction | speed KPH | gust KPH | rain 1hr cm | rain 24hr cm | rain mn cm | humidity % | barometer mb |
| 20260506121525 | 5 | 0.0 | 0.0 | 0.00 | 0.00 | 0.00 | 91 | 1010.2 | |
| 20260506120520 | 5 | 158 | 0.0 | 1.6 | 0.00 | 0.00 | 0.00 | 90 | 1010.3 |
| 20260506115524 | 5 | 113 | 1.6 | 3.2 | 0.00 | 0.00 | 0.00 | 90 | 1010.4 |
| 20260506114515 | 5 | 146 | 0.0 | 3.2 | 0.00 | 0.00 | 0.00 | 89 | 1010.3 |
| 20260506113515 | 6 | 0.0 | 0.0 | 0.00 | 0.00 | 0.00 | 88 | 1010.2 | |
| 20260506112518 | 6 | 0.0 | 0.0 | 0.00 | 0.00 | 0.00 | 87 | 1010.0 | |
| 20260506111607 | 6 | 0.0 | 0.0 | 0.00 | 0.00 | 0.00 | 87 | 1009.8 | |
| 20260506110516 | 6 | 0.0 | 0.0 | 0.00 | 0.00 | 0.00 | 86 | 1009.8 | |
| 20260506105516 | 6 | 0.0 | 0.0 | 0.00 | 0.00 | 0.00 | 84 | 1009.7 | |
| 20260506104541 | 6 | 0.0 | 0.0 | 0.00 | 0.00 | 0.00 | 84 | 1009.7 | |
| 20260506103533 | 7 | 0.0 | 0.0 | 0.00 | 0.00 | 0.00 | 83 | 1009.6 | |
| 20260506102523 | 7 | 45 | 0.0 | 1.6 | 0.00 | 0.00 | 0.00 | 82 | 1009.5 |
| 20260506101515 | 7 | 0.0 | 1.6 | 0.00 | 0.00 | 0.00 | 80 | 1009.6 | |
| 20260506100602 | 7 | 0.0 | 0.0 | 0.00 | 0.00 | 0.00 | 79 | 1009.4 | |
| 20260506095529 | 7 | 0.0 | 0.0 | 0.00 | 0.00 | 0.00 | 76 | 1009.3 | |
| 20260506094521 | 8 | 345 | 1.6 | 3.2 | 0.00 | 0.00 | 0.00 | 75 | 1009.2 |
| 20260506093521 | 8 | 0.0 | 0.0 | 0.00 | 0.00 | 0.00 | 74 | 1009.1 | |
| 20260506092531 | 8 | 0.0 | 0.0 | 0.00 | 0.00 | 0.00 | 72 | 1009.1 | |
| 20260506091532 | 9 | 0.0 | 0.0 | 0.00 | 0.00 | 0.00 | 70 | 1009.1 | |
| 20260506090550 | 9 | 135 | 0.0 | 3.2 | 0.00 | 0.00 | 0.00 | 69 | 1008.9 |
| 20260506085525 | 9 | 0.0 | 0.0 | 0.00 | 0.00 | 0.00 | 68 | 1008.7 | |
| 20260506084520 | 10 | 11 | 0.0 | 3.2 | 0.00 | 0.00 | 0.00 | 68 | 1008.7 |
| 20260506083530 | 10 | 25 | 1.6 | 3.2 | 0.00 | 0.00 | 0.00 | 68 | 1008.7 |
| 20260506082525 | 10 | 0.0 | 0.0 | 0.00 | 0.00 | 0.00 | 67 | 1008.6 | |
| 20260506081520 | 10 | 10 | 3.2 | 4.8 | 0.00 | 0.00 | 0.00 | 67 | 1008.4 |
| 20260506080533 | 10 | 2 | 1.6 | 4.8 | 0.00 | 0.00 | 0.00 | 66 | 1008.4 |
| 20260506072543 | 11 | 14 | 1.6 | 3.2 | 0.00 | 0.00 | 0.00 | 64 | 1008.2 |
| 20260506071518 | 11 | 293 | 0.0 | 3.2 | 0.00 | 0.00 | 0.00 | 63 | 1007.8 |
| 20260506070528 | 11 | 0.0 | 0.0 | 0.00 | 0.00 | 0.00 | 60 | 1007.7 | |
| 20260506061533 | 13 | 0.0 | 1.6 | 0.00 | 0.00 | 0.00 | 55 | 1007.5 | |
| 20260506060533 | 13 | 38 | 1.6 | 3.2 | 0.00 | 0.00 | 0.00 | 55 | 1007.4 |
| 20260506050521 | 15 | 36 | 3.2 | 3.2 | 0.00 | 0.00 | 0.00 | 48 | 1006.9 |
| 20260506044517 | 16 | 45 | 0.0 | 3.2 | 0.00 | 0.00 | 0.00 | 47 | 1006.9 |
| 20260506043520 | 16 | 68 | 0.0 | 1.6 | 0.00 | 0.00 | 0.00 | 46 | 1006.7 |
| 20260506042518 | 17 | 30 | 1.6 | 3.2 | 0.00 | 0.00 | 0.00 | 46 | 1006.6 |
| 20260506041531 | 17 | 40 | 1.6 | 3.2 | 0.00 | 0.00 | 0.00 | 44 | 1006.4 |
| 20260506040526 | 18 | 34 | 0.0 | 3.2 | 0.00 | 0.00 | 0.00 | 43 | 1006.4 |
| 20260506035529 | 19 | 0.0 | 0.0 | 0.00 | 0.00 | 0.00 | 41 | 1006.4 | |
| 20260506034529 | 20 | 0.0 | 0.0 | 0.00 | 0.00 | 0.00 | 39 | 1006.4 | |
| 20260506033551 | 21 | 0.0 | 0.0 | 0.00 | 0.00 | 0.00 | 37 | 1006.3 | |
| 20260506032530 | 22 | 0.0 | 0.0 | 0.00 | 0.00 | 0.00 | 35 | 1006.4 | |
| 20260506031522 | 24 | 0.0 | 0.0 | 0.00 | 0.00 | 0.00 | 32 | 1006.3 | |
| 20260506030519 | 25 | 180 | 0.0 | 1.6 | 0.00 | 0.00 | 0.00 | 30 | 1006.4 |
| 20260506025522 | 26 | 163 | 1.6 | 3.2 | 0.00 | 0.00 | 0.00 | 28 | 1006.4 |
| 20260506024523 | 27 | 134 | 3.2 | 4.8 | 0.00 | 0.00 | 0.00 | 26 | 1006.5 |
| 20260506023521 | 27 | 151 | 4.8 | 6.4 | 0.00 | 0.00 | 0.00 | 25 | 1006.4 |
| 20260506022518 | 28 | 156 | 4.8 | 8.0 | 0.00 | 0.00 | 0.00 | 25 | 1006.4 |
| 20260506021532 | 28 | 147 | 4.8 | 8.0 | 0.00 | 0.00 | 0.00 | 25 | 1006.6 |
| 20260506020532 | 27 | 167 | 4.8 | 8.0 | 0.00 | 0.00 | 0.00 | 27 | 1006.6 |
| 20260506015532 | 27 | 157 | 4.8 | 8.0 | 0.00 | 0.00 | 0.00 | 26 | 1006.6 |
| 20260506014532 | 27 | 166 | 4.8 | 8.0 | 0.00 | 0.00 | 0.00 | 26 | 1006.6 |
| 20260506013550 | 29 | 122 | 1.6 | 6.4 | 0.00 | 0.00 | 0.00 | 26 | 1006.6 |
| 20260506012541 | 28 | 108 | 1.6 | 3.2 | 0.00 | 0.00 | 0.00 | 26 | 1006.9 |
| 20260506011535 | 28 | 321 | 3.2 | 6.4 | 0.00 | 0.00 | 0.00 | 26 | 1007.0 |
| 20260506010515 | 28 | 303 | 3.2 | 6.4 | 0.00 | 0.00 | 0.00 | 25 | 1007.0 |
| 20260506005531 | 28 | 217 | 3.2 | 6.4 | 0.00 | 0.00 | 0.00 | 25 | 1007.1 |
| 20260506004533 | 29 | 49 | 3.2 | 6.4 | 0.00 | 0.00 | 0.00 | 25 | 1007.2 |
| 20260506003532 | 29 | 267 | 6.4 | 8.0 | 0.00 | 0.00 | 0.00 | 25 | 1007.3 |
| 20260506002532 | 29 | 232 | 3.2 | 6.4 | 0.00 | 0.00 | 0.00 | 25 | 1007.4 |
| 20260506001529 | 29 | 45 | 3.2 | 4.8 | 0.00 | 0.00 | 0.00 | 26 | 1007.6 |
| 20260506000532 | 29 | 272 | 4.8 | 4.8 | 0.00 | 0.00 | 0.00 | 25 | 1007.7 |
| 20260505235555 | 29 | 216 | 6.4 | 9.7 | 0.00 | 0.00 | 0.00 | 25 | 1007.8 |
| 20260505234527 | 29 | 233 | 4.8 | 9.7 | 0.00 | 0.00 | 0.00 | 25 | 1007.8 |
| 20260505233518 | 29 | 232 | 4.8 | 8.0 | 0.00 | 0.00 | 0.00 | 25 | 1008.0 |
| 20260505232530 | 28 | 150 | 3.2 | 6.4 | 0.00 | 0.00 | 0.00 | 25 | 1008.2 |
| 20260505231531 | 29 | 31 | 4.8 | 8.0 | 0.00 | 0.00 | 0.00 | 25 | 1008.3 |
| 20260505230554 | 28 | 252 | 6.4 | 11.3 | 0.00 | 0.00 | 0.00 | 25 | 1008.4 |
| 20260505225531 | 28 | 146 | 1.6 | 4.8 | 0.00 | 0.00 | 0.00 | 25 | 1008.5 |
| 20260505224534 | 28 | 264 | 6.4 | 8.0 | 0.00 | 0.00 | 0.00 | 25 | 1008.6 |
| 20260505223534 | 28 | 264 | 6.4 | 9.7 | 0.00 | 0.00 | 0.00 | 25 | 1008.8 |
| 20260505222534 | 28 | 269 | 6.4 | 11.3 | 0.00 | 0.00 | 0.00 | 25 | 1008.9 |
| 20260505221534 | 28 | 200 | 4.8 | 9.7 | 0.00 | 0.00 | 0.00 | 24 | 1009.2 |
| 20260505220526 | 28 | 261 | 4.8 | 8.0 | 0.00 | 0.00 | 0.00 | 25 | 1009.3 |
| 20260505215524 | 28 | 273 | 4.8 | 8.0 | 0.00 | 0.00 | 0.00 | 24 | 1009.4 |
| 20260505214539 | 28 | 240 | 8.0 | 11.3 | 0.00 | 0.00 | 0.00 | 25 | 1009.7 |
| 20260505213517 | 28 | 240 | 4.8 | 8.0 | 0.00 | 0.00 | 0.00 | 25 | 1009.9 |
| 20260505212537 | 27 | 256 | 4.8 | 6.4 | 0.00 | 0.00 | 0.00 | 27 | 1010.1 |
| 20260505211517 | 27 | 91 | 4.8 | 11.3 | 0.00 | 0.00 | 0.00 | 27 | 1010.3 |
| 20260505210531 | 27 | 249 | 6.4 | 12.9 | 0.00 | 0.00 | 0.00 | 28 | 1010.4 |
| 20260505205534 | 26 | 242 | 4.8 | 8.0 | 0.00 | 0.00 | 0.00 | 29 | 1010.5 |
| 20260505204536 | 27 | 171 | 4.8 | 8.0 | 0.00 | 0.00 | 0.00 | 30 | 1010.6 |
| 20260505203531 | 26 | 211 | 4.8 | 8.0 | 0.00 | 0.00 | 0.00 | 30 | 1010.9 |
| 20260505202531 | 27 | 238 | 6.4 | 9.7 | 0.00 | 0.00 | 0.00 | 30 | 1011.1 |
| 20260505201552 | 26 | 196 | 3.2 | 6.4 | 0.00 | 0.00 | 0.00 | 30 | 1011.1 |
| 20260505200521 | 26 | 216 | 4.8 | 8.0 | 0.00 | 0.00 | 0.00 | 29 | 1011.2 |
| 20260505195530 | 26 | 141 | 4.8 | 8.0 | 0.00 | 0.00 | 0.00 | 28 | 1011.3 |
| 20260505194550 | 25 | 169 | 4.8 | 8.0 | 0.00 | 0.00 | 0.00 | 30 | 1011.4 |
| 20260505193525 | 25 | 182 | 4.8 | 8.0 | 0.00 | 0.00 | 0.00 | 32 | 1011.5 |
| 20260505192610 | 24 | 193 | 6.4 | 11.3 | 0.00 | 0.00 | 0.00 | 33 | 1011.7 |
| 20260505191518 | 24 | 181 | 4.8 | 8.0 | 0.00 | 0.00 | 0.00 | 33 | 1011.8 |
| 20260505190522 | 23 | 205 | 6.4 | 9.7 | 0.00 | 0.00 | 0.00 | 35 | 1011.9 |
| 20260505185521 | 22 | 222 | 4.8 | 6.4 | 0.00 | 0.00 | 0.00 | 36 | 1012.1 |
| 20260505184521 | 23 | 171 | 4.8 | 8.0 | 0.00 | 0.00 | 0.00 | 35 | 1012.2 |
| 20260505183518 | 22 | 161 | 4.8 | 8.0 | 0.00 | 0.00 | 0.00 | 37 | 1012.2 |
| 20260505182521 | 21 | 172 | 6.4 | 8.0 | 0.00 | 0.00 | 0.00 | 38 | 1012.4 |
| 20260505181542 | 21 | 232 | 4.8 | 6.4 | 0.00 | 0.00 | 0.00 | 38 | 1012.6 |
| 20260505180535 | 22 | 155 | 4.8 | 8.0 | 0.00 | 0.00 | 0.00 | 38 | 1012.7 |
| 20260505175525 | 21 | 180 | 4.8 | 6.4 | 0.00 | 0.00 | 0.00 | 39 | 1012.7 |
| 20260505174525 | 20 | 164 | 3.2 | 6.4 | 0.00 | 0.00 | 0.00 | 41 | 1012.8 |
| 20260505173535 | 19 | 161 | 1.6 | 3.2 | 0.00 | 0.00 | 0.00 | 40 | 1013.0 |
| 20260505172530 | 19 | 120 | 4.8 | 6.4 | 0.00 | 0.00 | 0.00 | 42 | 1013.2 |
| 20260505171636 | 18 | 142 | 4.8 | 8.0 | 0.00 | 0.00 | 0.00 | 42 | 1013.2 |
| 20260505170554 | 17 | 140 | 3.2 | 6.4 | 0.00 | 0.00 | 0.00 | 45 | 1013.2 |
| 20260505165531 | 21 | 170 | 4.8 | 6.4 | 0.00 | 0.00 | 0.00 | 39 | 1013.2 |
| 20260505164532 | 20 | 168 | 3.2 | 6.4 | 0.00 | 0.00 | 0.00 | 41 | 1013.3 |
| 20260505163526 | 19 | 106 | 1.6 | 3.2 | 0.00 | 0.00 | 0.00 | 44 | 1013.4 |
| 20260505162521 | 19 | 214 | 3.2 | 3.2 | 0.00 | 0.00 | 0.00 | 44 | 1013.4 |
| 20260505161516 | 19 | 34 | 1.6 | 3.2 | 0.00 | 0.00 | 0.00 | 44 | 1013.7 |
| 20260505160541 | 16 | 125 | 3.2 | 4.8 | 0.00 | 0.00 | 0.00 | 50 | 1013.7 |
| 20260505152516 | 8 | 140 | 4.8 | 6.4 | 0.00 | 0.00 | 0.00 | 73 | 1013.9 |
| 20260505151529 | 8 | 127 | 4.8 | 6.4 | 0.00 | 0.00 | 0.00 | 74 | 1013.8 |
| 20260505150553 | 7 | 120 | 3.2 | 6.4 | 0.00 | 0.00 | 0.00 | 76 | 1013.7 |
| 20260505140518 | 5 | 121 | 1.6 | 3.2 | 0.00 | 0.00 | 0.00 | 94 | 1013.5 |
| 20260505124529 | 3 | 0.0 | 0.0 | 0.00 | 0.00 | 0.00 | 95 | 1013.0 | |
| 20260505123524 | 3 | 0.0 | 0.0 | 0.00 | 0.00 | 0.00 | 94 | 1013.0 | |
| 20260505122539 | 3 | 0.0 | 0.0 | 0.00 | 0.00 | 0.00 | 93 | 1012.9 |